Location: Ellerstadt
(49.4644°N, 8.2615°E)
Time: 05:53:59
(UTC+00:00)

SPOT 3 Rocket - Pass Details

Date: 19 June 2021
Orbit: 779 x 794 km, 98.7° (Epoch: 03 August)

Event Time Altitude Azimuth Distance (km) Brightness Sun altitude
Rises 21:40:54 0° 217° (SW) 3,263 6.5 -13.3°
Reaches altitude 10° 21:44:23 10° 242° (WSW) 2,344 6.0 -13.5°
Maximum altitude 21:47:04 14° 273° (W) 2,073 6.1 -13.7°
Drops below altitude 10° 21:49:47 10° 305° (NW) 2,359 7.0 -13.9°
Sets 21:53:19 0° 330° (NNW) 3,298 8.7 -14.1°
